AirNav   Air Wisconsin pilot careers
 
 331 users online  

5T0 Ward Airpark
Beasley, Texas, USA

GOING TO BEASLEY?


FAA INFORMATION EFFECTIVE 24 MAY 2018

Location

FAA Identifier: 5T0
Lat/Long: 29-30-09.8000N / 095-56-09.5000W
29-30.163333N / 095-56.158333W
29.5027222 / -95.9359722
(estimated)
Elevation: 107 ft. / 33 m (estimated)
Variation: 06E (1985)
From city: 1 mile NW of BEASLEY, TX
Time zone: UTC -5 (UTC -6 during Standard Time)
Zip code: 77417

Airport Operations

Airport use: Open to the public
Activation date: 05/1981
Control tower: no
ARTCC: HOUSTON CENTER
FSS: MONTGOMERY COUNTY FLIGHT SERVICE STATION
FOR FP FILING CALL CXO FSS 1-800-833-5602.
NOTAMs facility: CXO (NOTAM-D service available)
Attendance: UNATND
Wind indicator: yes
Segmented circle: no

Airport Communications

CTAF: 122.9
WX ASOS at SGR (16 nm NE): 118.125 (281-242-7605)
WX AWOS-3 at TME (18 nm N): 119.525 (281-945-5451)
WX AWOS-3 at ARM (19 nm SW): 118.475 (979-532-2791)

Nearby radio navigation aids

VOR radial/distance  VOR name  Freq  Var
ELAr108/22.1EAGLE LAKE VOR/DME116.4008E
HUBr250/35.6HOBBY VOR/DME117.1005E

 
NDB name  Hdg/Dist  Freq  Var  ID
WHARTON031/18.724506EARM .- .-. --

Airport Services

Runway Information

Runway 4/22

Dimensions: 3110 x 100 ft. / 948 x 30 m
Surface: turf, in fair condition
RUNWAY 4  RUNWAY 22
Latitude: 29-29.979588N29-30.346815N
Longitude: 095-56.362723W095-55.952833W
Elevation: 106.0 ft.107.0 ft.
Traffic pattern: leftleft
Runway heading: 038 magnetic, 044 true218 magnetic, 224 true
Obstructions: 30 ft. pline, marked50 ft. trees, 2066 ft. from runway, 140 ft. left of centerline, 41:1 slope to clear

Airport Ownership and Management from official FAA records

Ownership: Privately-owned
Owner: MALCOLM WARD
P.O. BOX 2188
PORT ARANASAS, TX 78373
Phone (351) 793-9325
Manager: MALCOLM WARD
P.O. BOX 2188
PORT ARANASAS, TX 78373
Phone (351) 793-9325

Airport Operational Statistics

Aircraft based on the field: 1
Single engine airplanes: 1
    
Aircraft operations: avg 21/month *
100% transient general aviation
* for 12-month period ending 31 December 2016

Additional Remarks

FOR CD CTC HOUSTON APCH AT 281-443-5844 TO CNL IFR CALL 281-443-5888.

Instrument Procedures

There are no published instrument procedures at 5T0.

Some nearby airports with instrument procedures:

KSGR - Sugar Land Regional Airport (16 nm NE)
KTME - Houston Executive Airport (18 nm N)
KARM - Wharton Regional Airport (19 nm SW)
KELA - Eagle Lake Airport (21 nm W)
KIWS - West Houston Airport (23 nm NE)
 
Loc | Ops | Rwys | IFR | FBO | Links
Com | Nav | Svcs | Stats | Notes

AirNav Hotels Sweepstakes
 
Area around 5T0 (Ward Airpark)
 
Road maps at: MapQuest Bing Google
 
Aerial photo
No photo
 
Sectional chart

 
Airport distance calculator
Flying to Ward Airpark? Find the distance to fly.

From to 5T0

Sunrise and sunset
Times for 18-Jun-2018
 Local
(UTC-5)
 Zulu
(UTC)
Morning civil twilight05:5710:57
Sunrise06:2511:25
Sunset20:2501:25
Evening civil twilight20:5201:52

Current date and time
Zulu (UTC)  18-Jun-2018 07:57:42
Local (UTC-5)  18-Jun-2018 02:57:42
 
METAR
KSGR 
16nm NE 
180753Z AUTO 11004KT 10SM SCT016 26/23 A2990 RMK AO2 SLP126 T02610233
KTME 
18nm N 
180735Z AUTO 09004KT 10SM 25/24 A2993 RMK AO2
KARM 
19nm SW 
180735Z AUTO 00000KT 10SM CLR 24/23 A2991 RMK AO2 T02390226
KELA 
21nm W 
180735Z AUTO 10004KT 10SM SCT024 BKN075 25/25 A2991 RMK AO2 T02500245
KAXH 
24nm E 
171715Z AUTO 11008G16KT 10SM BKN026 BKN034 OVC043 30/25 A2991 RMK AO2 T02950246
K66R 
31nm W 
180735Z AUTO 11003KT 10SM CLR 24/23 A2992 RMK AO2 T02400230
KBYY 
32nm S 
180735Z AUTO 00000KT 7SM SCT017 SCT023 BKN043 25/23 A2989 RMK AO2 T02500240
TAF
KSGR 
16nm NE 
180531Z 1806/1906 11006KT P6SM FEW030 FM180800 12010KT 6SM -SHRA BR BKN025 PROB30 1815/1818 TSRA OVC025CB FM181800 11012KT 5SM -TSRA BKN015CB OVC025 FM190300 10011KT P6SM VCSH BKN025
NOTAMs
Click for the latest NOTAMs
NOTAMs are issued by the DoD/FAA and will open in a separate window not controlled by AirNav.

 

 
 

Would you like to see your business listed on this page?

 If your business provides an interesting product or service to pilots, flight crews, aircraft, or users of the Ward Airpark, you should consider listing it here.  To start the listing process, click on the button below
 
Add a business
 

Other Pages about Ward Airpark

Update a link
 
Copyright © AirNav, LLC. All rights reserved. Privacy Policy  Contact